Regional Weather Roundup
Issued by NWS

Home | Current Version | Previous Version | Text Only | Print | Product List | Glossary On
Versions: 1 2 3 4 5 6 7 8 9 10 11 12 13 14 15 16 17 18 19 20 21 22 23 24 25 26 27 28 29 30 31 32 33 34 35 36 37 38 39 40 41 42 43 44 45 46 47 48 49 50
000
ASUS44 KEWX 170302
RWRTX
SOUTH TEXAS REGIONAL WEATHER ROUNDUP
NATIONAL WEATHER SERVICE AUSTIN/SAN ANTONIO TX
1000 PM CDT TUE SEP 16 2014

NOTE: "FAIR" INDICATED FEW OR NO CLOUDS BELOW 12,000 FEET WITH NO
SIGNIFICANT WEATHER AND/OR OBSTRUCTIONS TO VISIBILITY.

* - THESE STATIONS ARE NOT NWS OR FAA STATIONS...AND ARE NOT SUBJECT
    TO NWS AND FAA QUALITY CONTROL.

TXZ171-172-183>190-170400-
TEXAS HILL COUNTRY AND EDWARDS PLATEAU

CITY           SKY/WX    TMP DP  RH WIND       PRES   REMARKS
JUNCTION       CLOUDY    80  68  66 E8        30.06R
*LLANO         CLOUDY    79  72  78 SE10      30.08R
BURNET         CLOUDY    77  69  76 SE7       30.08R
*HORSESHOE BAY RAIN      75  75 100 CALM      30.06R
*KERRVILLE     MOCLDY    79  72  79 E5        30.05R
*FREDERICKSBRG HVY RAIN  71  68  91 E7G16     30.09R
*ROCKSPRINGS   PTCLDY    81  66  61 CALM      30.08R
*BOERNE STAGE  CLOUDY    77  70  78 E6        30.05R
*CASTROVILLE   PTCLDY    81  70  68 SE6       30.01R
HONDO          PTCLDY    82  71  69 SE8       30.01R
*UVALDE        PTCLDY    79  74  83 CALM      30.00R
DEL RIO        PTCLDY    83  71  67 N3        29.96R
LAUGHLIN AFB   NOT AVBL
CARRIZO SPRGS  PTCLDY    77  73  88 CALM      29.95S
$$

TXZ173-191>194-202-209-217>225-228-170400-
CENTRAL AND SOUTH CENTRAL TEXAS

CITY           SKY/WX    TMP DP  RH WIND       PRES   REMARKS
GEORGETOWN     CLOUDY    75  73  94 CALM      30.04R
AUSTIN/BERGSTM LGT RAIN  77  73  87 NE5       30.02R
AUSTIN/MABRY   CLOUDY    76  74  93 CALM      30.04R
*AUSTIN/EXEC   LGT RAIN  75  73  94 E5        30.03S
*LAGO VISTA    RAIN      76  71  87 E3        30.06R
SAN MARCOS     CLOUDY    75  70  83 NE7       30.03R
NEW BRAUNFELS  PTCLDY    78  72  81 E7        30.00R
RANDOLPH AFB   MOCLDY    76  74  93 NE6       30.01R
PT SAN ANTONIO CLOUDY    81  72  74 SE6       29.98R
SAN ANTONIO    MOCLDY    80  74  81 E6        30.01R
STINSON FIELD  MOCLDY    81  73  76 E6        29.98R
*PLEASANTON    MOCLDY    77  74  89 CALM      29.98R
*LA GRANGE     LGT RAIN  77  77  99 E3        30.00R
*GIDDINGS      LGT RAIN  76  73  90 N5        30.07R
*GONZALES      CLOUDY    78  76  95 E5        29.99R
$$

TXZ163>164-176>182-195>201-210>213-226-227-235-170400-
SOUTHEAST TEXAS

CITY           SKY/WX    TMP DP  RH WIND       PRES   REMARKS
COLLEGE STN    RAIN      77  75  93 SE3       30.04R
*BRYAN         DRIZZLE  N/A N/A N/A CALM      30.03R
*CALDWELL      RAIN      75  75 100 CALM      30.07R
*CROCKETT      CLOUDY    77  75  94 CALM      30.06R
*BRENHAM       LGT RAIN  76  74  93 NE3       30.04R
HUNTSVILLE     CLOUDY    76  74  93 CALM      30.04R
CONROE         CLOUDY    76  74  93 CALM      30.04R
HOUSTON BUSH   CLOUDY    76  75  97 CALM      30.01R
HOUSTON HOBBY  CLOUDY    78  77  96 CALM      30.00R
*HOUSTON SW AP CLOUDY    76  76 100 CALM      30.01R
PEARLAND       CLOUDY    79  76  90 CALM      30.02R
HOUSTON HOOKS  CLOUDY    77  75  93 CALM      30.03R
ELLINGTON FLD  CLOUDY    77  75  94 CALM      30.01R
SUGAR LAND     CLOUDY    79  75  87 E5        30.01R
*HOUSTON EXEC  CLOUDY    75  75 100 N3        30.03R
*CLEVELAND MUN LGT RAIN  77  76  96 CALM      30.04R
*WHARTON       MOCLDY    76  75  96 E5        30.01R
$$

TXZ214>216-236>238-170400-
THE UPPER TEXAS COAST

CITY           SKY/WX    TMP DP  RH WIND       PRES   REMARKS
*ORANGE        DRIZZLE   77  77 100 CALM      30.03S
PORT ARTHUR    CLOUDY    79  76  90 E3        30.01R
GALVESTON      CLOUDY    80  78  94 SE6       30.01R
ANGLETON       MOCLDY    77  76  96 NE6       29.99S
*BAY CITY      MOCLDY   N/A N/A N/A SE5       29.99R
PALACIOS       MOCLDY    81  77  88 SE7       29.98R
$$

TXZ229>234-239>247-170400-
TEXAS COASTAL BEND AND RIO GRANDE PLAINS

CITY           SKY/WX    TMP DP  RH WIND       PRES   REMARKS
VICTORIA       MOCLDY    80  76  87 SE6       29.98R
*BEEVILLE      MOCLDY    79  77  93 SE6       29.98R
ROCKPORT       CLEAR     81  76  84 SE8       29.97R
*PORT ARANSAS  MOCLDY    83  76  79 S13G20    29.96S HX  90
*PORT LAVACA   MOCLDY    79  77  94 SE3       29.97R
*INGLESIDE     CLEAR     83  75  76 S10G16    29.95S HX  91
CORPUS CHRISTI MOCLDY    81  76  84 SE8       29.96R
CORPUS NAS     MOCLDY    82  79  90 S12       29.96R HX  92
*ROBSTOWN      NOT AVBL
ALICE          CLEAR     79  77  94 SE7       29.95R
KINGSVILLE NAS LGT RAIN  81  79  94 SE7       29.95R HX  90
COTULLA        PTCLDY    80  76  87 E5        29.96R
*FAITH RANCH   PTCLDY    77  73  88 E3        29.96R
LAREDO         PTCLDY    79  79 100 SE5       29.98R
$$

TXZ248>255-170400-
DEEP SOUTH TEXAS

CITY           SKY/WX    TMP DP  RH WIND       PRES   REMARKS
BROWNSVILLE    PTCLDY    80  77  90 SE8       29.97R
PORT ISABEL    PTCLDY    81  76  84 SE8       29.96S
*SOUTH PADRE   PTCLDY    82  77  83 S12       29.97R HX  91
HARLINGEN      MOCLDY    79  75  87 S6        29.96R
*HEBBRONVILLE    N/A     79  75  89 CALM      29.96S
MCALLEN        PTCLDY    81  75  82 SE8       29.97R
*WESLACO       MOCLDY    81  73  76 S7        29.96R
FALFURRIAS     PTCLDY    68  64  86 E5        29.95R
EDINBURG       PTCLDY    82  76  81 SE7       29.95R
*ZAPATA        MOCLDY    78  77  96 CALM      29.96R
$$

TXZ213>215-236>238-242>244-246-247-251-254-255-170400-
CMAN STATIONS

STATION/POSITION TIME  TEMP    WIND        PRES    WAVE
                       AIR SEA DIR/SP/G            HT/PER
                 (UTC) (F)     (DEG/KT/KT) (MB)    (FT/S)
SABINE PASS      0200   81 82   70/  3/  4 1016.4
SEA RIM ST PARK  0200   81     160/  4/  5 1016.4
NORTH JETTY/GLS  0200   80 83  140/  8/  9   N/A
EAGLE POINT      0200   80 82  160/  9/ 11 1015.7
MORGANS POINT    0200   79     160/  7/  9 1015.6
MISSION/ARANSAS  0200   76     140/ 10     1015.0
PORT O`CONNOR    0200          140/ 11/ 12   N/A
PORT ARANSAS     0200   84 85  150/ 14/ 16 1014.9
MALAQUITE BEACH  0200   84 85  140/ 19/ 20 1013.7
BAFFIN BAY       0200   83 83  150/ 12/ 16 1014.4
PORT ISABEL      0200   83 84  150/ 13/ 19 1015.0
$$

GMZ080-GMZ150>470-170400-
OFFSHORE BUOY REPORTS

STATION/POSITION TIME  TEMP    WIND        PRES    WAVE
                       AIR SEA DIR/SP/G            HT/PER
                 (UTC) (F)     (DEG/KT/KT) (MB)    (FT/S)
20 E GALVESTON   0300   80 85  160/ 10/ 12 1015.3    2/ 5
90 E PT ARANSAS  0300   84 85  170/ 10/ 12 1015.9    3/ 6
35 NE PT MANSFLD 0200   84 85  150/ 14/ 17 1013.5    3/ 5
200 E PT ISABEL  0200   82 86  150/  6/  8 1015.7    2/ 5
$$



USA.gov is the U.S. government's official web portal to all federal, state and local government web resources and services.